CZ-4C R/B, 43278

Orbit data source: Space-Track

CZ-4C R/B, 43278 is space debris in LEO originally from a launch on Tue, 10 Apr 2018 UTC launched from the Jiuquan Satellite Launch Center, China (JSC). Debris objects in space refer to the collection of defunct objects orbiting the Earth. Examples of debris include non-operational satellites, rocket bodies, and fragments generated from explosions, collisions, or faulty payload assembly.

Loading next visibility...
Identifier
43278, 2018-034D
Orbit
LEO
Country
Flag of CNCN / PRC
Related business
Manufacturer
SAST
Mission
Spacecraft
Bus & Motor
CZ-4 STAGE 3, Unknown motor
Mass
~1,000 kg wet, ~1,000 kg dry
Launch date (UTC)
2018-04-10 (8 years ago)
Launch vehicle
Unknown
Launch site
Jiuquan Satellite Launch Center, China (JSC)
Object type
Payload
Rocket body
Debris
Shape & HBR
Cyl, 2.5 m
Radar Cross Section
14.536 m², Large (>1 m²)

Expand to show TLE details & history
Last TLE update: 2 days ago

TLE from 2 days ago
0 CZ-4C R/B
1 43278U 18034D   26171.34353229 -.00000055  00000-0  31535-4 0  9990
2 43278  63.4291 240.1292 0383744 358.3061   1.6646 13.60951162407273
Epoch: 2026-06-20T08:14Z
TLE epoch observation values (Epoch: 2026-06-20T08:14:41.189Z)
Latitude
-0.00011°
Longitude
-152.10199°
Altitude
749.758 km
Speed
7.622 km/s
True Right ascension
16h 00m 30s
True Declination
0° 00' 00"
Sunlit
Object was in full shadow at epoch
Visualization orbit readout
Latitude
Unknown
Longitude
Unknown
Altitude
Unknown
Speed
Unknown
Apparent Right ascension
Unknown
Apparent Declination
Unknown
Sunlit
N/A
Visualization observer readout
Local Sidereal Time
21:52:38
Azimuth
Unknown
Elevation
Unknown
Doppler factor
Unknown
Orbital elements
Apogee altitude
1,315.375 km
Perigee altitude
746.728 km
Semi-major axis
7,409.188 km
Eccentricity
0.03837
Inclination
63.4291°
RAAN
240.1292°
Arg. of periapsis
358.3061°
True anomaly
1.79876°
Mean anomaly
1.6646°
Eccentric anomaly
1.73102°
Mean motion
3.4032 °/min
Orbital period
105.78 mins
BSTAR
0.000031535
Loading maneuver chart data...
Computing Atmospheric mass density...
Loading historical data...
Loading historical data...
Loading historical data...
Loading historical data...
Loading historical data...
Loading historical data...
Loading historical data...

Documentation

Showing up to 5 results
|